Temp_Advection
nan nan nan nan nan nan nan nan nan nan nan nan nan nan nan nan nan nan nan nan nan nan nan nan nan nan nan nan nan nan nan nan nan nan nan nan nan nan nan nan nan nan nan nan nan nan nan nan nan nan nan nan nan nan nan nan nan nan nan nan nan nan nan nan nan nan nan nan nan
nan -1 -1 -0 -0 0 1 1 1 0 0 1 0 0 0 0 1 1 1 1 1 1 2 3 4 4 4 4 3 3 3 3 4 5 5 3 2 1 1 1 1 0 -0 0 1 1 1 -0 0 1 1 1 1 1 1 1 1 1 1 0 0 0 0 -0 -0 -0 -0 0 nan
nan -0 -0 -0 0 0 1 0 -0 -0 0 1 1 1 1 1 1 1 1 1 1 2 3 5 5 4 4 4 4 5 4 4 5 5 3 2 1 1 1 0 0 0 0 1 2 2 1 0 0 1 1 1 1 1 1 1 1 1 0 0 -0 -0 -0 -0 -0 0 0 1 nan
nan 0 -0 -0 -1 -0 -0 -0 -0 -0 0 1 1 1 1 1 1 1 1 1 1 1 3 5 5 3 3 3 4 4 3 3 3 2 1 1 1 1 0 0 0 0 1 2 2 2 1 0 0 1 1 1 1 1 1 1 1 0 0 -0 -0 -0 0 0 0 0 0 1 nan
nan -0 -0 -1 -1 -1 -0 -0 0 0 1 1 1 1 1 2 2 1 1 1 1 1 2 3 3 3 3 3 3 2 1 1 1 0 0 0 0 0 -0 -0 0 1 2 2 2 2 0 0 0 1 1 1 1 1 1 1 0 0 -0 -0 -0 0 0 0 0 0 0 0 nan
nan -0 -0 -1 -1 -0 0 0 1 1 1 1 1 1 1 1 1 1 1 1 1 1 1 2 3 4 5 4 2 1 1 1 0 0 0 0 -0 -0 -0 0 1 2 2 3 2 1 0 0 0 1 1 1 1 1 0 0 -0 -0 -0 0 0 0 0 0 0 0 0 1 nan
nan 0 -0 -0 -0 0 1 1 1 1 1 1 0 1 1 1 2 1 1 2 2 1 1 1 3 5 6 4 2 1 1 1 1 1 1 0 -1 -1 -0 1 2 2 3 3 2 1 0 0 1 1 1 1 0 0 0 -0 -0 0 0 1 1 0 0 0 0 0 1 1 nan
nan 0 0 0 0 1 2 2 1 0 0 -0 0 1 2 2 2 2 2 2 2 1 0 2 4 5 5 3 2 1 1 1 1 1 1 -0 -1 -1 -0 1 3 3 4 3 2 1 0 0 0 1 1 0 0 0 0 0 0 0 1 1 0 0 0 0 0 0 0 1 nan
nan 1 1 1 1 2 2 1 1 -0 -0 -0 1 2 2 3 2 2 2 2 1 1 1 2 4 5 4 2 1 1 1 0 -0 -0 -0 -0 -1 -1 -0 2 3 4 4 3 1 0 -0 0 0 0 0 0 0 0 0 0 0 1 0 0 0 0 0 0 0 0 0 1 nan
nan 1 1 2 2 2 2 1 0 0 0 1 1 2 2 2 2 2 2 2 1 1 1 2 4 4 2 1 1 1 1 0 -1 -1 -1 -0 -0 -1 0 2 4 4 3 1 -0 -1 -0 -0 0 0 0 0 -0 0 0 0 0 0 0 0 0 0 0 0 0 0 1 1 nan
nan 1 2 2 2 2 1 1 0 0 1 1 1 2 1 1 2 3 3 2 2 1 0 1 3 2 1 1 1 1 1 0 -1 -1 -0 0 -0 0 1 4 5 4 2 -0 -1 -1 -0 -0 -0 -0 -0 -0 0 0 1 1 0 0 0 0 0 0 -0 -0 0 1 1 1 nan
nan 1 2 2 2 2 1 1 0 1 1 1 1 2 2 2 2 3 3 3 1 0 -0 1 2 3 2 2 1 1 1 0 -0 0 0 0 0 1 3 5 5 3 0 -1 -1 -1 -0 -0 -0 -0 0 0 1 1 1 1 1 1 0 0 0 -0 -0 0 1 1 1 1 nan
nan 1 1 1 1 1 1 1 1 1 1 2 2 2 2 2 3 3 3 2 1 -0 -0 0 2 3 2 1 1 0 1 1 0 -0 -0 0 1 2 4 4 3 1 -1 -1 -1 -0 -0 -0 0 0 1 1 1 1 1 1 1 1 0 0 -0 -0 0 1 1 1 1 -0 nan
nan 1 1 1 1 1 1 1 1 1 2 2 2 2 2 2 2 2 1 1 0 -0 0 1 3 3 1 0 0 0 1 1 0 0 1 2 3 4 4 4 2 0 -1 -1 -1 -1 -0 0 1 1 1 1 1 1 1 1 0 0 0 -0 -0 0 1 1 1 1 -0 -0 nan
nan 0 0 1 1 1 1 1 1 2 2 2 1 1 2 2 1 1 1 0 0 0 1 2 3 2 1 0 0 0 1 1 1 1 2 3 3 4 4 3 1 -0 -1 -1 -1 -0 0 1 1 1 1 1 1 1 1 0 0 -0 -0 -0 0 1 1 1 0 -0 -1 -0 nan
nan 0 0 1 1 1 2 1 1 2 2 1 1 1 2 1 1 0 0 0 1 1 2 2 2 1 1 0 0 0 0 1 1 2 2 2 3 4 4 3 1 -0 -1 -0 -0 0 1 1 1 1 1 1 0 0 0 0 0 -0 0 0 1 1 1 1 -0 -1 -0 0 nan
nan 0 1 1 1 1 1 1 1 2 1 1 1 1 1 0 0 0 0 1 1 1 2 2 1 1 0 0 0 0 1 1 2 2 1 2 3 3 3 1 0 -0 -0 -0 0 1 1 1 1 0 0 0 0 0 0 0 0 0 0 1 1 1 1 -0 -1 -1 -0 0 nan
nan 1 1 1 1 1 1 1 2 2 2 1 1 1 1 1 0 1 1 1 1 2 2 2 1 0 0 0 0 0 1 2 2 2 1 3 4 4 2 0 -0 -0 -0 0 1 1 1 0 0 0 0 0 0 0 0 0 0 1 1 1 1 1 -0 -1 -1 -0 0 0 nan
nan 1 1 1 1 1 1 2 2 2 2 1 1 1 1 1 1 1 1 1 2 2 2 1 0 0 0 0 0 1 2 3 3 2 2 5 6 4 1 -0 -1 -1 -0 1 1 1 1 0 0 0 0 0 0 0 0 0 1 1 1 1 1 -0 -1 -1 -0 0 0 0 nan
nan 1 1 1 1 1 2 3 3 2 1 1 1 1 1 1 1 1 1 2 2 2 2 0 0 0 0 0 -0 1 3 3 2 2 5 7 5 2 -0 -1 -1 -0 0 1 1 0 0 0 0 0 0 0 0 0 0 0 1 1 1 1 -0 -1 -1 -1 -0 0 0 0 nan
nan 1 1 1 1 2 3 3 2 1 1 1 1 1 1 1 1 1 1 2 2 2 1 0 0 0 -0 -0 0 2 3 3 3 5 6 5 2 -0 -1 -1 -1 0 1 1 0 0 0 0 0 0 0 0 0 0 0 1 1 1 1 0 -1 -1 -1 -0 0 0 0 0 nan
nan 1 1 1 2 2 2 2 1 1 1 1 1 1 1 1 1 1 2 2 2 1 1 0 0 -0 -0 -0 1 3 4 4 5 6 5 2 -0 -1 -1 -1 -0 1 1 0 0 0 0 0 0 0 0 0 0 0 1 1 1 1 1 -0 -1 -1 -0 0 0 0 0 0 nan
nan 1 2 1 1 1 1 1 1 0 0 1 1 1 1 1 1 1 1 2 1 1 1 1 0 0 0 1 2 3 4 5 6 5 2 -0 -1 -1 -1 -1 0 1 0 0 1 1 1 1 1 0 0 0 0 1 1 1 1 1 -0 -1 -1 -0 0 0 0 0 0 0 nan
nan 1 1 1 1 1 1 0 0 0 0 1 1 1 0 0 0 1 1 1 1 1 1 0 0 0 1 2 3 4 6 6 4 2 0 -1 -1 -1 -1 0 1 1 1 1 1 1 1 0 0 0 0 1 1 1 1 1 1 -0 -1 -1 -0 -0 0 0 0 0 0 0 nan
nan 2 1 1 1 1 0 0 0 0 1 1 1 1 0 0 0 1 1 1 1 1 1 0 0 1 2 3 5 6 6 5 2 0 -1 -1 -2 -1 -0 1 1 1 1 1 1 0 0 0 -0 0 1 1 1 1 1 1 0 -0 -0 -0 -0 -0 0 0 1 1 1 0 nan
nan 1 1 0 0 0 0 0 0 1 1 1 1 0 0 0 1 1 1 1 1 1 1 1 2 3 4 5 6 6 5 3 1 -1 -1 -2 -2 -0 1 1 1 1 1 0 0 -0 -0 -0 0 1 1 1 1 1 0 -0 -0 -0 0 -0 -0 -0 -0 0 1 1 0 -0 nan
nan 1 0 0 0 0 0 0 1 1 1 1 1 1 1 1 2 2 1 1 1 1 1 2 3 5 6 6 6 4 2 0 -1 -1 -2 -2 -1 0 1 1 1 1 0 -0 -0 -0 -0 0 1 1 1 1 0 -0 -0 -0 0 0 0 -0 -1 -0 0 1 0 0 -0 -0 nan
nan 0 0 0 0 0 0 1 1 1 1 1 1 2 2 2 2 2 1 2 2 2 3 4 5 6 6 5 3 1 -0 -1 -1 -2 -2 -1 1 1 1 1 1 0 -0 -0 -0 -0 0 1 1 1 1 0 -0 0 1 1 1 0 -0 -0 -0 0 0 0 0 -0 -0 -0 nan
nan 0 0 1 1 1 1 2 2 2 2 2 2 3 2 2 2 2 2 2 2 3 4 5 5 5 4 2 1 -0 -1 -1 -2 -2 -1 1 1 1 1 0 0 -0 -0 -0 0 1 1 1 1 1 0 1 1 1 1 1 0 -0 -0 0 0 0 0 -0 -0 -0 -0 -0 nan
nan 1 1 1 1 2 2 3 3 3 3 3 3 2 2 2 2 2 3 3 3 4 5 5 4 3 1 -0 -0 -1 -1 -2 -2 -0 1 1 0 0 0 -0 -0 -0 0 1 1 1 1 1 1 1 1 1 1 1 1 0 -0 -0 0 0 0 0 -0 -0 -0 -0 -0 -0 nan
nan 1 2 2 2 3 3 3 3 3 3 3 2 2 2 2 3 3 3 3 3 4 5 4 2 0 -0 -0 -1 -1 -2 -2 -0 0 0 0 -0 -0 -0 -0 0 0 1 1 1 1 1 1 1 1 1 1 1 0 -0 -0 -0 0 1 0 0 -0 -1 -1 -0 -0 -0 -0 nan
nan 2 2 3 3 3 3 3 3 2 2 1 1 1 2 2 3 3 3 3 3 4 3 1 0 -0 0 -0 -1 -2 -1 -0 0 0 0 0 0 0 0 0 1 1 1 1 1 1 0 1 1 1 1 0 0 -0 -0 0 1 1 0 -0 -1 -1 -1 -0 -0 -0 -0 -0 nan
nan 3 3 3 3 2 2 2 2 1 1 1 1 1 2 3 3 3 3 3 3 2 0 -1 -0 0 -0 -1 -1 -1 -1 -0 0 0 0 0 0 0 0 1 1 1 1 1 1 1 1 1 1 1 0 0 0 0 0 1 0 0 -0 -1 -1 -0 -0 -0 -0 -0 -0 -0 nan
nan 3 2 2 2 2 1 1 1 0 1 1 2 2 3 3 3 2 2 2 1 -0 -0 -0 0 -0 -1 -1 -1 -1 -0 -0 -0 -0 -0 0 0 0 0 0 0 0 0 1 1 1 1 1 0 0 0 0 0 1 0 0 -0 -1 -1 -1 -0 -0 -0 -0 -0 -0 -0 -0 nan
nan 2 1 1 1 1 1 0 0 1 1 2 2 3 3 2 2 1 0 -0 -0 -0 0 0 0 -0 -1 -1 -1 -1 -1 -1 -0 -0 -0 0 0 0 0 0 0 1 1 1 1 1 0 0 -0 0 0 0 0 0 0 -0 -1 -1 -0 -0 -0 -0 -0 -0 -0 -0 -0 -0 nan
nan 1 1 1 1 1 1 1 1 2 2 2 2 2 2 1 1 0 -0 -0 -0 0 1 0 -0 -1 -1 -1 -1 -1 -0 -0 -0 0 0 0 0 0 0 1 1 1 1 1 1 0 -0 -0 0 0 1 0 0 0 -0 -0 -0 -0 -0 -0 -0 -0 -0 -0 -0 -0 -0 -0 nan
nan 1 1 1 1 1 2 2 2 2 2 2 1 0 -0 -0 -0 0 0 0 1 1 0 -0 -0 -1 -1 -1 -1 -0 0 1 1 1 0 0 0 0 1 1 1 1 1 0 0 -0 -0 0 0 0 0 0 0 -0 -0 -0 -0 -0 -0 -0 -0 -0 -0 -0 -0 -0 -0 -0 nan
nan 1 1 1 1 1 2 2 2 1 1 0 -0 -0 -0 0 0 1 1 1 1 0 -0 -1 -1 -1 -1 -0 0 0 1 1 1 1 0 0 1 1 1 1 1 0 0 0 0 0 0 0 0 0 0 0 -0 -0 -0 -0 -0 -0 -0 -0 -0 -0 -0 -0 -0 -0 -0 -0 nan
nan 1 1 1 0 0 1 1 0 -0 -0 -1 -0 0 1 1 1 1 1 1 0 -0 -1 -1 -0 -0 0 1 1 1 0 0 0 0 0 1 1 1 1 0 0 0 0 0 0 0 0 0 0 0 0 0 0 0 -0 -0 -0 -0 -0 -0 -0 -0 -0 -0 -0 0 0 -0 nan
nan -0 -0 -0 -0 -0 -0 -0 -1 -1 -0 0 1 1 1 1 1 1 0 0 0 -0 -0 0 0 1 1 1 1 0 0 0 0 0 1 1 1 0 0 0 0 0 0 0 0 0 0 -0 -0 -0 0 0 0 0 -0 -0 -0 -0 0 0 0 0 0 0 0 0 0 0 nan
nan nan nan nan nan nan nan nan nan nan nan nan nan nan nan nan nan nan nan nan nan nan nan nan nan nan nan nan nan nan nan nan nan nan nan nan nan nan nan nan nan nan nan nan nan nan nan nan nan nan nan nan nan nan nan nan nan nan nan nan nan nan nan nan nan nan nan nan nan
Wind_Speed
40 41 41 40 40 39 39 39 40 40 40 41 41 42 42 43 43 44 45 45 45 45 46 47 47 48 48 49 49 49 49 49 48 47 45 42 40 38 37 35 33 31 29 27 25 24 23 23 23 23 22 21 19 17 16 15 14 13 11 10 9 8 8 8 9 10 11 13 14
40 40 40 39 39 38 38 39 40 40 40 41 42 42 43 43 44 44 44 45 45 46 47 47 48 49 49 49 50 50 50 49 49 46 43 41 39 38 36 35 32 30 29 27 25 24 24 24 24 23 22 21 20 18 16 15 13 11 10 9 8 8 8 9 10 12 13 15 16
39 40 39 39 39 38 38 39 39 40 40 41 42 43 44 44 44 44 44 45 45 46 47 48 48 48 48 49 49 49 48 47 46 44 41 40 39 38 36 33 31 29 28 27 25 25 25 25 24 23 22 21 20 18 16 15 13 11 10 9 9 9 9 10 12 13 14 16 17
39 39 39 39 39 38 38 39 39 39 39 40 41 43 44 44 45 45 45 45 45 46 47 48 48 47 47 47 47 46 45 44 43 41 39 39 39 37 35 32 30 29 27 25 25 25 26 25 24 23 22 21 19 18 16 14 12 11 10 10 10 10 10 11 12 13 14 15 16
38 39 39 39 38 38 38 38 39 39 39 40 41 42 43 44 45 46 46 46 46 47 47 48 48 48 47 47 46 45 43 42 40 39 38 38 37 35 33 32 30 29 27 25 25 26 26 25 24 23 22 21 19 17 15 14 13 12 11 11 10 10 10 11 12 13 13 14 15
37 38 38 38 38 38 38 39 39 39 39 40 41 42 43 44 45 46 47 47 47 47 48 48 48 47 46 46 45 44 43 42 40 39 37 35 34 34 33 32 31 29 26 25 26 26 26 25 25 24 23 21 19 17 16 14 13 12 11 10 10 10 10 11 12 12 13 14 14
35 36 37 37 38 38 38 39 39 40 40 40 41 41 42 43 44 46 46 47 47 48 48 49 48 47 45 44 43 43 42 42 40 38 36 33 33 34 34 33 31 28 26 26 27 27 27 26 26 25 24 22 19 17 16 14 13 12 11 10 10 10 11 11 12 13 13 14 14
31 33 34 36 37 38 39 39 40 40 41 41 40 41 41 42 44 45 46 47 48 48 49 48 47 44 42 40 40 41 41 40 38 36 34 32 32 33 34 33 30 27 26 26 27 28 28 27 26 25 23 21 19 17 16 14 13 12 11 11 11 11 12 13 13 13 13 13 13
27 29 31 34 36 37 39 40 41 41 41 41 40 40 41 42 44 45 46 47 47 48 48 47 45 42 40 38 38 39 39 38 35 34 33 33 33 34 35 34 30 28 27 28 28 29 29 28 27 25 23 21 19 17 16 14 13 13 12 12 12 12 13 13 12 12 12 12 12
22 25 28 32 35 37 39 40 41 41 41 41 40 41 42 43 43 44 45 46 46 47 47 46 44 41 39 38 38 38 37 35 33 32 32 33 34 35 35 34 30 29 29 29 30 31 30 29 27 25 23 21 19 17 16 15 14 13 12 12 12 12 12 12 11 11 11 11 12
19 22 25 30 33 37 39 40 41 41 41 41 41 42 42 43 43 43 43 44 45 46 46 46 44 41 39 37 37 35 34 32 32 32 32 33 35 35 35 33 30 30 30 31 32 32 31 30 27 25 23 20 18 16 15 14 13 12 12 12 12 11 11 11 10 10 10 11 13
17 21 25 29 32 35 38 40 41 41 41 41 42 42 42 43 43 42 43 43 45 45 45 45 44 41 37 34 33 33 33 32 32 32 32 33 35 35 34 32 31 31 32 33 33 33 31 29 26 24 21 19 17 15 14 12 11 11 11 11 11 11 11 10 10 10 10 12 15
18 21 25 28 31 34 37 39 40 41 41 42 42 42 42 42 42 42 43 43 44 44 44 44 43 39 34 31 31 31 31 32 31 32 33 34 35 35 33 32 32 33 33 34 33 32 29 27 24 21 19 17 15 14 12 11 11 11 11 11 11 11 10 10 9 9 11 14 16
17 21 25 27 30 33 35 38 39 40 41 42 42 42 42 42 42 42 42 43 43 44 44 43 40 36 32 29 28 28 29 30 31 32 34 35 35 35 34 33 34 34 35 34 32 30 27 24 22 19 16 15 13 13 12 12 12 12 12 11 11 10 9 8 9 11 13 16 16
17 20 23 26 29 32 35 37 39 40 41 41 42 42 42 42 42 42 42 42 42 42 42 41 38 33 30 27 27 27 28 29 31 33 34 35 35 34 34 35 36 36 35 33 31 28 25 22 19 17 15 14 13 13 12 12 12 12 11 10 9 8 7 8 10 13 16 16 16
16 18 22 25 29 31 34 36 38 39 40 41 42 42 42 42 42 41 42 41 41 41 41 39 36 32 29 27 26 27 28 30 31 33 35 35 35 35 35 36 36 36 34 31 28 26 23 20 17 16 15 14 13 13 13 12 12 11 10 9 8 7 8 10 13 16 16 17 17
16 17 20 24 28 31 33 36 37 38 39 40 41 42 42 42 41 41 41 41 41 40 40 38 35 31 28 27 27 28 29 30 32 34 35 35 35 36 36 36 35 34 31 29 26 23 21 19 17 16 15 14 13 13 12 11 11 10 8 7 6 7 9 13 15 16 17 17 17
16 17 19 23 26 30 33 35 37 38 39 40 40 41 41 41 41 41 40 40 39 39 39 36 33 30 28 27 28 28 29 31 33 34 35 35 36 37 36 34 33 31 29 27 24 21 19 17 16 15 14 14 13 12 11 10 9 8 7 6 7 9 12 14 16 16 17 17 17
16 17 19 22 26 29 31 34 36 37 38 39 40 40 41 41 41 40 39 38 38 38 37 34 31 29 28 28 28 29 30 31 33 34 35 35 36 35 34 32 30 29 27 25 22 20 18 17 16 15 14 13 12 11 10 9 8 6 6 7 9 12 14 15 16 16 17 17 17
16 17 19 22 25 28 30 33 35 36 38 38 39 39 40 40 39 38 38 38 37 36 34 32 30 29 29 29 29 29 30 32 34 35 35 35 34 33 31 30 29 28 26 23 21 19 18 17 16 15 13 12 11 10 9 8 7 6 7 8 11 13 15 16 16 16 17 17 18
17 18 20 22 24 27 29 32 34 35 37 37 38 38 38 38 37 37 36 36 35 34 33 31 30 29 29 29 30 30 31 33 35 35 35 33 32 31 30 30 30 28 25 22 20 19 18 16 15 14 12 11 10 9 8 7 7 7 8 10 13 15 16 16 16 17 17 17 18
18 19 21 22 24 26 28 30 33 34 35 36 37 37 36 36 35 35 34 34 34 33 32 31 30 29 29 29 30 31 32 34 35 34 33 31 31 31 31 31 29 27 24 21 20 18 17 15 14 12 11 10 9 8 8 7 7 8 10 12 14 15 16 16 16 17 17 18 19
19 20 21 22 23 25 27 29 31 33 34 35 35 35 35 34 34 33 33 33 33 33 32 31 29 28 29 29 31 32 33 33 34 33 32 31 31 32 32 31 28 25 22 20 19 17 15 14 13 12 11 10 9 8 7 7 7 9 12 14 15 16 16 17 17 17 18 19 20
20 21 22 22 23 24 26 29 30 32 33 33 34 33 33 33 33 33 34 34 33 33 32 30 29 29 29 30 31 31 32 33 33 33 32 32 32 32 32 30 26 24 21 19 17 15 14 13 12 11 10 9 8 7 6 7 9 12 14 15 16 17 17 17 18 18 19 20 20
21 22 22 23 23 25 26 28 29 31 32 32 33 33 32 33 33 34 34 34 33 33 31 30 29 30 30 30 30 30 30 32 33 33 33 33 33 32 31 27 24 21 19 17 16 14 13 13 12 11 9 8 7 7 8 10 12 14 15 17 17 18 18 19 19 19 19 20 20
22 22 23 23 24 25 26 28 29 30 31 32 32 32 32 33 34 35 35 34 33 32 31 30 30 31 31 30 29 29 30 32 33 33 33 33 33 31 28 25 22 20 18 16 15 14 13 12 11 10 9 8 9 10 12 14 15 16 17 18 19 19 19 19 19 19 19 20 21
23 24 24 24 25 26 27 28 29 30 31 32 33 33 34 34 35 35 35 34 33 32 31 31 31 31 30 29 29 30 32 33 33 32 32 32 31 29 25 22 20 18 17 16 15 14 13 12 10 10 10 11 13 14 15 16 16 16 17 18 19 19 19 18 17 18 19 20 21
24 24 25 26 26 27 28 28 30 31 32 33 33 34 34 35 35 35 34 34 33 32 32 31 31 30 29 28 29 31 33 33 32 32 32 31 29 26 23 21 19 18 16 15 14 12 11 10 10 10 11 13 14 14 14 14 14 15 17 18 19 18 17 17 17 18 20 21 22
25 26 26 28 28 29 29 30 31 32 33 34 34 34 34 34 34 34 34 33 33 32 32 32 31 30 29 29 30 32 33 33 32 32 31 29 26 24 22 20 18 17 15 13 12 10 9 9 10 11 12 13 13 12 12 13 15 16 18 18 17 17 17 18 19 20 21 21 22
26 27 28 29 30 30 31 31 32 33 33 34 34 34 34 33 33 33 33 33 32 32 32 32 31 29 29 29 31 32 33 33 32 32 30 27 25 23 21 19 17 15 12 11 10 9 9 10 11 12 12 11 10 10 12 14 16 17 18 17 17 17 18 19 20 21 22 22 22
28 29 30 31 31 31 32 32 33 33 33 33 33 33 33 33 33 33 33 33 32 32 32 31 29 28 27 29 31 33 33 33 32 30 28 25 23 21 19 16 14 12 10 10 10 10 11 12 12 11 9 9 10 12 14 16 17 17 17 17 18 19 20 21 21 21 22 22 22
30 31 32 32 33 32 32 32 33 33 32 32 32 32 32 33 33 33 33 32 32 31 30 28 27 26 27 29 32 33 33 32 30 28 25 23 20 18 15 13 11 11 10 11 11 12 12 12 10 9 9 10 12 14 15 16 16 16 17 18 19 20 21 21 21 21 21 22 22
32 32 33 33 33 32 32 32 32 32 31 31 32 32 33 33 33 33 32 32 31 29 27 25 25 26 28 31 33 33 32 30 27 25 22 19 17 14 13 11 11 11 11 12 12 12 11 10 9 9 10 12 13 14 14 14 15 16 18 19 20 20 20 20 20 21 21 21 21
32 32 32 32 32 32 31 31 31 31 31 31 32 32 33 33 33 32 31 30 29 26 24 23 24 27 30 32 32 31 29 27 24 21 19 16 14 13 12 11 11 11 11 11 11 10 9 9 10 11 11 12 12 12 13 14 16 17 19 19 20 20 20 20 20 20 20 20 20
31 31 31 31 31 31 31 31 31 31 32 32 33 32 32 32 31 30 29 27 25 24 23 24 26 29 31 31 30 28 26 23 21 18 16 15 13 11 10 10 10 10 10 9 8 8 9 10 11 11 11 11 11 12 13 15 17 18 19 19 19 19 19 19 19 19 19 20 20
29 29 29 30 30 31 31 31 31 32 32 32 32 31 30 29 28 27 26 24 23 24 25 27 29 31 31 30 27 25 23 20 18 16 15 13 11 10 9 9 9 8 8 7 7 9 10 11 11 10 10 10 11 13 15 16 17 18 18 18 18 18 18 18 18 18 19 19 19
27 28 29 30 30 31 31 31 31 31 31 31 30 28 27 26 25 24 24 23 24 26 28 30 31 30 29 27 25 22 20 17 15 14 12 10 9 8 8 8 7 7 7 7 8 10 10 10 9 9 9 10 12 14 16 16 17 17 17 17 17 17 17 17 18 18 18 19 19
26 27 28 29 30 30 30 30 30 29 28 27 25 24 23 23 23 23 24 25 26 29 30 30 29 28 26 24 21 19 17 15 12 11 9 8 8 7 7 6 6 6 7 8 9 9 9 9 9 9 10 12 14 15 16 16 16 16 16 16 16 17 17 17 17 17 18 18 19
25 26 26 27 27 27 27 27 26 25 24 22 21 21 21 22 23 24 25 26 28 29 29 28 26 24 22 20 18 16 14 12 10 9 8 7 7 7 6 6 6 7 8 8 8 8 8 9 9 10 12 13 14 15 15 16 16 16 16 16 16 16 16 17 17 17 17 17 18
23 23 23 23 24 24 24 23 21 20 19 19 19 20 21 23 24 25 26 27 27 26 25 24 22 20 18 16 14 12 11 9 8 8 7 7 7 6 6 7 7 7 7 7 7 7 8 10 11 12 13 14 14 15 15 15 15 15 15 16 16 16 16 16 16 16 16 16 17
19 19 19 20 20 20 20 18 17 17 16 17 19 20 22 24 25 26 26 26 25 23 22 21 19 17 15 13 11 9 8 7 7 7 7 7 7 7 7 7 6 6 6 6 6 7 9 11 12 13 13 14 14 14 15 15 15 15 16 16 16 15 15 15 15 15 15 15 16
Wind_Direction
239 239 241 242 242 243 243 244 245 245 246 245 245 246 246 247 247 247 247 246 245 245 245 245 243 242 241 240 239 237 236 234 232 230 228 227 227 229 231 233 233 234 235 235 230 221 213 211 212 213 212 210 209 208 207 206 206 206 208 215 225 240 255 269 277 282 284 283 280
239 240 241 242 243 243 243 243 243 244 245 245 246 246 247 247 247 246 247 247 247 246 245 243 241 239 238 238 237 235 233 231 229 228 227 227 228 230 233 236 238 239 239 239 232 220 212 210 212 211 209 206 205 204 205 207 209 213 218 226 236 247 257 265 270 272 272 271 270
239 240 241 241 242 242 241 241 242 243 244 245 245 246 246 246 246 245 246 247 247 247 245 242 238 236 235 234 234 232 231 229 228 227 228 228 230 232 235 239 242 243 242 238 228 216 209 210 211 210 207 204 203 203 206 210 214 219 225 233 242 250 257 262 265 266 265 265 264
240 240 240 240 241 241 242 242 243 244 245 245 245 244 245 245 244 244 244 245 246 246 245 242 239 236 235 233 232 231 231 231 230 229 229 230 231 234 238 242 245 245 242 234 220 210 207 209 210 208 205 203 202 204 208 213 218 222 227 236 244 252 258 261 262 262 261 260 260
241 241 241 242 242 243 244 244 244 245 245 245 244 243 243 243 242 242 242 243 245 245 244 243 241 239 237 235 233 232 233 233 232 232 232 232 233 236 240 244 246 245 239 228 213 206 205 208 207 205 203 203 204 206 209 213 216 221 227 236 243 249 253 256 257 258 258 259 261
243 243 243 243 244 244 244 244 244 244 244 244 243 243 243 242 241 241 241 242 243 244 243 243 242 241 239 237 236 236 236 236 235 235 235 234 236 240 244 245 244 240 232 221 210 205 205 206 204 203 203 204 205 207 209 211 214 219 225 231 237 241 245 248 251 253 256 259 263
245 245 245 245 245 244 243 243 242 242 242 242 243 243 243 243 242 241 241 241 241 241 241 242 242 241 240 239 239 238 237 236 237 236 236 236 239 243 246 246 240 231 221 213 206 204 203 204 203 203 204 205 207 209 210 212 215 217 220 224 228 232 237 242 246 250 253 258 262
247 247 247 247 246 245 243 241 240 240 240 241 242 244 244 244 243 242 241 241 240 240 241 242 242 241 240 240 239 238 236 235 235 237 238 240 243 246 247 245 235 221 210 206 203 202 202 202 202 204 206 208 208 209 211 213 213 213 215 219 224 229 233 238 243 248 253 258 263
247 248 248 247 246 243 241 239 239 239 240 241 242 243 243 243 243 242 241 240 240 240 241 242 241 241 241 240 240 238 236 234 235 238 240 243 245 247 247 243 229 214 204 202 201 202 201 202 203 205 207 208 207 208 210 211 210 210 212 217 223 229 233 238 244 250 257 263 266
247 247 246 245 243 241 238 237 238 239 239 240 241 241 242 242 243 242 242 241 241 241 241 241 241 241 241 242 242 241 238 236 237 239 242 244 245 246 244 237 222 207 199 200 201 201 202 202 204 205 206 206 206 207 209 210 208 209 213 219 225 231 236 242 249 257 263 267 266
249 247 245 243 241 239 237 235 236 237 238 238 239 239 240 241 242 242 241 241 240 239 240 242 242 242 242 243 243 243 241 239 239 240 242 243 244 243 238 228 213 201 198 200 201 202 203 204 205 206 206 206 206 207 207 207 208 211 216 223 229 235 242 249 256 263 266 265 263
248 246 244 242 240 238 237 235 236 236 237 237 237 238 239 240 241 241 240 239 238 238 240 242 242 243 244 244 245 245 244 241 239 239 240 241 240 237 229 217 204 198 199 201 202 203 203 205 207 207 206 205 205 205 205 206 209 214 221 228 234 240 247 254 261 265 265 262 259
246 244 242 241 240 239 237 236 236 236 236 236 236 237 238 238 239 239 238 238 238 239 240 241 242 243 245 246 247 247 245 242 238 237 237 236 234 228 219 207 199 198 200 202 203 203 204 206 206 205 202 201 201 202 203 206 211 217 224 230 236 243 250 257 263 263 260 257 257
243 243 242 241 240 239 238 236 236 236 236 235 236 236 236 237 237 237 237 238 239 239 240 241 242 243 245 246 247 246 244 240 237 235 233 229 224 218 210 202 198 199 200 202 203 203 204 204 202 200 198 197 198 200 203 208 213 219 225 231 237 244 252 259 261 258 256 255 257
244 243 243 242 241 239 238 236 236 235 235 235 235 236 235 235 235 236 237 238 239 240 241 240 240 242 245 246 245 244 242 238 236 232 228 221 214 208 203 199 198 199 200 201 202 202 201 199 197 195 194 195 198 202 206 211 216 221 226 232 238 247 254 257 256 255 255 257 259
247 246 244 243 241 240 238 237 236 236 235 235 236 236 235 235 235 236 237 238 240 240 240 239 239 241 243 244 244 242 240 237 233 229 223 215 207 202 199 198 199 199 199 200 200 199 196 194 192 191 193 196 200 204 209 213 217 222 228 235 243 251 255 255 254 255 257 259 262
250 248 247 245 243 241 239 237 237 236 236 236 236 236 236 236 237 237 238 239 240 240 239 237 238 240 242 243 242 241 239 235 230 224 219 213 206 200 198 198 199 199 198 199 197 194 191 190 190 191 194 198 203 207 211 214 219 225 232 241 250 255 255 255 256 258 260 263 265
252 249 248 245 243 241 240 239 238 237 236 236 236 237 237 238 238 238 239 239 240 239 238 236 236 239 241 242 242 241 238 233 225 220 216 212 206 201 198 198 198 198 198 197 194 191 189 189 190 193 196 200 204 208 212 216 221 228 237 248 255 257 257 257 259 262 264 266 268
254 251 247 244 243 242 241 239 238 237 236 236 237 237 238 239 239 239 240 240 240 238 236 235 236 237 240 242 243 242 237 229 221 216 213 209 203 199 197 197 197 197 197 194 191 188 188 189 192 195 198 201 205 209 214 218 224 230 240 250 254 256 257 259 262 264 267 269 272
256 251 246 243 243 242 241 239 238 236 236 236 237 237 238 239 240 240 240 240 238 237 235 234 235 237 240 243 246 242 234 224 216 212 208 203 197 194 194 196 197 197 195 191 188 187 188 190 193 195 198 201 205 210 215 220 224 230 238 246 251 255 258 260 263 266 269 271 274
254 249 245 243 243 242 241 239 237 236 235 236 237 237 238 239 240 240 240 239 237 234 232 232 234 238 243 246 247 241 230 219 212 207 202 195 191 191 194 197 198 196 192 189 187 188 189 191 193 195 198 202 207 212 217 222 226 232 239 246 252 255 258 261 265 268 271 273 276
249 245 243 242 242 242 240 238 237 236 235 236 237 237 238 238 239 239 239 237 234 232 230 231 235 239 244 247 245 236 225 215 208 201 194 188 188 191 195 197 197 193 190 188 188 189 191 192 194 197 201 205 211 217 223 229 235 241 246 251 255 257 260 263 266 269 272 275 277
245 242 240 240 241 241 240 238 237 236 236 236 237 237 237 237 237 237 236 233 231 230 229 230 233 237 241 241 238 230 220 210 200 192 186 186 189 193 196 197 194 191 188 188 188 189 191 193 195 200 205 211 217 224 232 241 248 253 255 257 259 261 263 266 268 271 274 276 277
240 239 239 239 240 239 238 238 237 237 237 236 236 235 235 235 235 235 233 230 228 227 227 228 230 233 235 234 230 224 214 202 190 184 183 187 191 195 196 194 191 188 187 186 186 188 190 194 197 203 210 217 224 232 242 250 255 257 259 259 261 262 264 267 269 272 274 276 278
236 236 237 237 237 237 237 237 237 237 237 236 236 235 234 234 234 233 231 228 226 225 226 227 228 230 230 228 223 215 205 193 184 181 184 188 192 195 194 191 188 185 184 184 185 188 192 197 203 209 215 222 229 238 244 248 250 253 255 258 260 262 264 267 270 273 275 277 277
232 233 234 235 235 235 236 236 237 237 236 236 235 234 233 233 232 230 228 225 224 224 224 226 227 227 225 221 213 203 193 186 183 183 186 190 193 193 191 187 184 183 183 184 188 192 198 204 211 216 220 224 228 232 235 238 242 246 251 255 258 262 265 269 272 275 277 277 277
229 230 231 232 232 233 234 235 236 235 234 234 233 231 231 230 228 226 223 222 221 222 224 224 224 222 218 211 201 191 185 182 183 185 189 193 193 191 187 183 182 182 184 188 193 200 206 213 218 222 225 227 229 231 234 237 242 248 253 257 261 265 269 273 276 277 277 277 278
227 228 228 228 229 230 231 232 231 230 230 230 229 228 227 225 223 221 219 219 219 221 221 221 219 215 208 199 191 186 183 182 184 187 191 193 191 187 183 181 182 184 189 194 200 207 214 220 225 228 231 233 236 240 245 250 255 259 262 264 266 269 273 277 278 277 277 277 279
225 225 225 224 224 225 225 225 224 224 224 224 223 222 220 219 217 216 216 216 216 217 217 215 211 205 198 191 187 184 182 183 186 190 191 190 186 183 181 182 184 188 193 199 206 213 220 227 232 235 238 242 247 253 261 266 267 267 267 269 272 275 278 278 278 277 278 279 280
220 220 220 219 219 219 218 217 218 218 218 217 216 215 214 213 212 212 212 212 213 213 213 209 203 197 191 188 185 183 183 185 188 190 188 185 182 181 182 184 187 191 196 203 210 218 225 230 235 240 245 252 260 266 269 268 268 268 270 273 276 278 278 277 278 278 280 281 283
214 215 214 214 212 211 210 210 211 211 210 210 209 209 209 208 208 208 208 209 210 210 208 203 197 192 189 187 184 183 184 186 188 187 184 182 181 181 183 185 187 193 200 207 215 222 228 233 238 244 251 260 265 266 265 265 267 270 273 276 277 277 277 278 279 281 282 284 285
209 209 209 207 205 204 204 204 204 204 204 204 204 204 205 205 204 205 206 207 207 205 201 196 193 190 188 185 183 184 185 186 184 182 180 179 179 180 181 184 189 196 204 212 220 226 232 238 244 251 256 259 260 261 263 266 270 274 276 277 277 278 279 281 283 284 286 287 288
204 203 202 201 199 198 198 198 199 199 199 200 201 202 202 202 202 203 203 204 203 200 197 194 192 189 186 184 183 184 183 182 180 178 176 176 176 178 182 188 194 203 211 219 226 232 238 245 251 256 257 258 260 263 268 273 276 277 277 278 279 281 283 285 287 288 289 290 291
198 197 196 195 194 194 194 194 195 196 197 198 199 200 201 200 200 200 200 200 199 197 195 194 191 187 184 183 182 181 179 177 174 173 172 173 176 181 187 195 204 212 220 227 232 238 245 250 255 258 261 263 268 273 277 279 279 278 279 281 283 286 288 289 291 292 293 294 294
193 192 192 191 191 191 191 192 193 195 196 197 197 198 198 199 198 198 197 197 196 194 192 189 186 184 182 181 180 178 175 172 170 171 173 176 180 185 193 204 214 222 229 234 240 244 249 253 257 262 268 273 278 281 281 280 279 281 283 286 288 291 292 293 294 295 296 296 297
190 190 190 190 190 190 191 191 192 193 194 194 195 195 195 196 197 197 197 196 193 189 185 182 180 178 177 175 174 172 170 169 170 172 175 178 182 190 202 214 223 230 234 238 243 247 252 257 264 271 278 282 282 281 280 280 282 285 288 290 292 294 295 296 297 298 298 298 298
188 189 189 189 189 189 189 190 190 191 191 192 193 193 194 194 195 195 195 193 189 183 178 175 173 172 171 169 168 167 167 168 169 170 173 178 187 200 212 220 226 231 235 240 245 252 259 267 275 282 284 282 280 279 280 283 286 289 292 294 296 297 298 299 299 300 300 300 300
188 189 189 189 188 187 188 188 188 188 189 190 191 193 194 194 192 190 189 186 181 175 170 167 166 165 165 164 164 163 162 162 163 167 174 185 198 209 216 220 225 231 237 244 252 262 271 280 285 284 281 278 279 281 284 287 291 293 296 297 298 299 300 300 301 301 301 301 301
189 189 190 189 188 188 188 187 187 187 189 190 191 192 192 190 185 181 178 175 171 167 163 160 159 159 159 158 158 157 156 157 161 170 183 196 205 211 216 220 227 235 244 254 264 275 283 285 283 279 277 277 280 284 288 291 294 297 298 299 301 301 302 302 302 302 302 302 302
192 192 193 194 194 193 192 190 188 189 190 191 190 187 183 179 174 169 165 162 160 157 155 153 152 151 151 150 150 151 152 158 169 181 192 201 207 211 218 225 236 247 257 268 278 282 281 279 277 276 277 280 284 288 291 295 298 300 300 300 301 302 302 302 302 302 303 303 303
196 198 199 200 201 199 196 193 190 190 190 188 182 176 170 165 160 156 153 151 149 148 146 145 144 143 143 143 145 149 158 169 180 190 196 202 208 216 226 237 250 262 272 279 278 275 273 273 275 277 280 283 288 292 295 298 300 302 301 301 301 301 301 301 301 301 301 303 304
Height
1449 1450 1452 1454 1456 1457 1459 1460 1462 1462 1463 1464 1465 1466 1467 1467 1468 1469 1470 1471 1472 1473 1473 1474 1474 1475 1475 1476 1477 1477 1478 1479 1481 1482 1483 1484 1485 1487 1487 1487 1489 1491 1493 1495 1497 1498 1499 1499 1499 1500 1501 1502 1504 1505 1505 1505 1506 1506 1505 1505 1506 1506 1506 1506 1507 1506 1506 1507 1507
1447 1448 1450 1452 1454 1456 1457 1458 1459 1460 1461 1462 1463 1464 1464 1465 1466 1467 1468 1469 1470 1471 1472 1472 1472 1473 1473 1474 1475 1475 1476 1477 1479 1480 1481 1483 1484 1485 1485 1486 1487 1489 1491 1493 1495 1497 1498 1499 1499 1499 1500 1501 1502 1503 1504 1505 1505 1505 1505 1504 1504 1504 1505 1505 1505 1505 1506 1506 1507
1446 1447 1449 1451 1452 1454 1455 1456 1457 1458 1459 1460 1461 1462 1462 1463 1464 1465 1466 1467 1468 1469 1470 1470 1470 1470 1471 1472 1473 1474 1476 1477 1478 1479 1480 1482 1482 1483 1484 1485 1487 1489 1490 1492 1493 1495 1497 1498 1499 1499 1499 1500 1501 1502 1502 1503 1504 1504 1504 1503 1503 1503 1503 1504 1504 1505 1505 1506 1507
1444 1446 1447 1449 1450 1452 1453 1454 1455 1456 1457 1458 1459 1460 1460 1461 1462 1463 1464 1465 1466 1467 1468 1468 1468 1469 1470 1471 1472 1474 1476 1477 1478 1479 1479 1480 1481 1482 1483 1485 1487 1488 1489 1491 1492 1493 1495 1497 1498 1498 1499 1499 1500 1500 1501 1502 1502 1502 1502 1502 1502 1502 1502 1503 1503 1504 1505 1506 1507
1443 1444 1446 1447 1448 1450 1451 1452 1453 1454 1455 1456 1457 1457 1458 1459 1461 1461 1462 1463 1464 1465 1466 1466 1467 1468 1469 1470 1471 1473 1475 1477 1478 1479 1479 1480 1481 1482 1483 1485 1486 1487 1488 1490 1491 1492 1494 1496 1497 1497 1498 1498 1499 1499 1499 1500 1501 1501 1501 1500 1500 1501 1501 1502 1503 1504 1504 1505 1506
1442 1443 1444 1446 1447 1448 1449 1450 1451 1452 1453 1454 1455 1455 1457 1457 1458 1459 1460 1461 1462 1463 1463 1463 1465 1467 1468 1469 1470 1472 1474 1476 1477 1478 1480 1481 1482 1482 1483 1485 1486 1487 1487 1489 1490 1492 1493 1494 1495 1496 1497 1497 1497 1497 1497 1498 1499 1499 1499 1499 1499 1500 1501 1502 1502 1503 1504 1504 1505
1440 1442 1443 1444 1445 1447 1447 1448 1449 1450 1451 1452 1452 1453 1455 1456 1456 1457 1458 1459 1460 1460 1461 1461 1463 1464 1466 1467 1470 1472 1473 1474 1476 1477 1479 1481 1482 1482 1483 1484 1485 1486 1486 1487 1489 1490 1492 1493 1494 1494 1495 1496 1496 1496 1496 1497 1497 1497 1497 1498 1498 1499 1500 1501 1501 1502 1502 1503 1503
1439 1440 1441 1442 1444 1445 1446 1447 1447 1448 1449 1450 1451 1452 1453 1454 1454 1455 1456 1457 1458 1458 1459 1460 1461 1463 1464 1466 1468 1470 1471 1472 1475 1477 1479 1480 1481 1482 1482 1483 1484 1485 1486 1487 1488 1489 1491 1492 1492 1493 1494 1494 1494 1494 1494 1495 1495 1496 1496 1497 1497 1498 1499 1500 1500 1501 1501 1501 1502
1438 1439 1440 1441 1442 1443 1444 1445 1445 1446 1447 1448 1449 1451 1452 1452 1452 1453 1454 1455 1456 1457 1457 1459 1460 1462 1463 1464 1465 1467 1470 1472 1474 1477 1478 1480 1480 1481 1481 1482 1482 1483 1485 1486 1487 1488 1489 1490 1491 1492 1492 1492 1493 1493 1493 1493 1494 1494 1495 1496 1497 1497 1498 1498 1499 1499 1499 1499 1500
1437 1437 1438 1439 1440 1441 1442 1443 1444 1445 1446 1447 1448 1449 1450 1450 1451 1452 1453 1454 1455 1456 1457 1457 1458 1460 1461 1463 1464 1467 1469 1472 1474 1476 1477 1478 1478 1479 1479 1480 1481 1482 1483 1485 1486 1487 1488 1488 1489 1490 1490 1491 1491 1491 1492 1492 1493 1493 1494 1495 1496 1497 1497 1497 1497 1497 1497 1498 1499
1435 1436 1437 1438 1439 1440 1441 1441 1442 1443 1444 1445 1447 1447 1448 1449 1450 1451 1452 1453 1454 1454 1455 1456 1457 1458 1460 1462 1464 1467 1469 1471 1473 1474 1475 1476 1476 1477 1477 1478 1479 1480 1482 1484 1485 1486 1486 1487 1487 1488 1488 1489 1489 1490 1491 1492 1492 1493 1494 1495 1495 1495 1496 1496 1496 1495 1496 1497 1498
1434 1435 1436 1436 1437 1438 1439 1440 1441 1442 1443 1444 1445 1446 1446 1447 1448 1449 1450 1451 1452 1453 1454 1455 1455 1457 1460 1462 1465 1467 1468 1470 1471 1472 1472 1473 1474 1474 1475 1476 1477 1479 1481 1482 1483 1484 1485 1486 1486 1487 1487 1487 1488 1489 1490 1491 1492 1492 1493 1494 1494 1494 1494 1494 1494 1494 1495 1496 1498
1433 1434 1434 1435 1436 1437 1437 1438 1439 1440 1441 1442 1443 1444 1445 1446 1447 1448 1449 1450 1451 1452 1452 1453 1455 1456 1459 1462 1464 1466 1467 1468 1469 1469 1470 1471 1471 1472 1473 1474 1476 1477 1480 1481 1482 1483 1484 1485 1485 1486 1486 1487 1487 1488 1489 1490 1491 1492 1492 1492 1493 1493 1492 1492 1492 1493 1495 1496 1497
1432 1432 1433 1434 1435 1435 1436 1437 1438 1439 1440 1441 1442 1442 1443 1444 1446 1447 1447 1448 1449 1450 1451 1452 1454 1456 1458 1460 1462 1464 1465 1466 1467 1467 1468 1469 1469 1470 1471 1472 1474 1476 1478 1480 1482 1483 1483 1484 1484 1484 1485 1486 1487 1487 1488 1489 1490 1491 1491 1491 1491 1491 1491 1491 1492 1493 1495 1496 1496
1431 1432 1432 1433 1433 1434 1435 1436 1437 1437 1438 1439 1440 1441 1442 1443 1444 1445 1446 1447 1448 1449 1451 1452 1453 1456 1457 1459 1460 1462 1463 1464 1464 1465 1466 1467 1468 1468 1469 1470 1472 1474 1477 1479 1481 1482 1483 1483 1483 1483 1484 1485 1486 1487 1488 1488 1489 1489 1490 1490 1490 1490 1490 1491 1492 1494 1495 1495 1495
1430 1431 1431 1432 1432 1433 1434 1435 1435 1436 1437 1438 1439 1440 1441 1442 1443 1444 1445 1446 1447 1448 1450 1451 1453 1455 1457 1458 1458 1460 1461 1462 1462 1463 1464 1465 1466 1467 1467 1469 1471 1474 1477 1479 1481 1481 1482 1482 1482 1483 1483 1484 1485 1486 1487 1487 1488 1488 1488 1489 1488 1488 1489 1491 1492 1493 1494 1494 1494
1428 1429 1430 1431 1432 1432 1433 1433 1434 1435 1436 1437 1438 1439 1440 1441 1442 1443 1444 1445 1446 1447 1449 1450 1452 1453 1455 1456 1457 1457 1458 1459 1461 1462 1463 1463 1464 1465 1467 1469 1472 1475 1477 1479 1480 1480 1480 1480 1481 1482 1483 1484 1484 1485 1486 1486 1487 1487 1487 1487 1487 1488 1489 1491 1492 1493 1493 1492 1492
1427 1428 1429 1430 1430 1431 1432 1432 1433 1434 1435 1436 1437 1438 1439 1440 1441 1442 1443 1445 1446 1447 1448 1449 1451 1452 1453 1454 1455 1455 1456 1457 1459 1460 1461 1462 1462 1464 1467 1470 1473 1476 1477 1478 1479 1479 1479 1480 1481 1481 1482 1483 1484 1484 1485 1485 1486 1486 1486 1486 1487 1488 1490 1491 1492 1492 1492 1492 1491
1426 1427 1427 1428 1429 1430 1430 1431 1432 1433 1434 1435 1436 1437 1438 1439 1440 1441 1443 1444 1445 1446 1447 1448 1450 1451 1452 1452 1453 1454 1455 1456 1457 1458 1459 1460 1462 1464 1468 1472 1474 1476 1477 1477 1477 1478 1478 1479 1480 1481 1481 1482 1483 1483 1484 1484 1484 1484 1485 1485 1487 1488 1490 1490 1491 1491 1490 1490 1490
1425 1425 1426 1427 1427 1428 1429 1430 1431 1432 1433 1434 1435 1436 1437 1438 1440 1441 1442 1444 1445 1446 1447 1447 1448 1449 1450 1451 1452 1453 1454 1455 1456 1457 1457 1459 1462 1466 1470 1472 1474 1475 1476 1476 1476 1477 1477 1478 1479 1480 1481 1481 1482 1482 1483 1483 1483 1483 1484 1485 1487 1488 1489 1489 1489 1489 1489 1489 1489
1423 1424 1425 1426 1426 1427 1428 1429 1430 1431 1432 1433 1434 1436 1437 1438 1439 1441 1442 1443 1444 1445 1446 1446 1447 1448 1449 1450 1451 1452 1452 1453 1454 1455 1457 1459 1463 1467 1470 1472 1473 1474 1474 1474 1475 1476 1477 1477 1478 1479 1480 1481 1481 1482 1482 1482 1482 1482 1483 1485 1486 1487 1488 1488 1488 1488 1488 1487 1487
1422 1423 1423 1424 1425 1426 1427 1428 1429 1430 1432 1432 1434 1435 1437 1438 1439 1440 1441 1442 1443 1444 1444 1445 1446 1447 1448 1449 1450 1450 1451 1452 1453 1455 1457 1461 1465 1468 1470 1471 1472 1472 1473 1473 1474 1475 1476 1477 1477 1478 1479 1480 1480 1481 1481 1481 1481 1482 1483 1485 1486 1487 1487 1487 1487 1487 1486 1486 1486
1422 1422 1422 1423 1424 1425 1427 1427 1428 1430 1431 1432 1433 1435 1436 1437 1438 1439 1440 1441 1442 1442 1443 1444 1445 1447 1447 1448 1448 1448 1449 1450 1452 1456 1459 1462 1465 1467 1468 1470 1471 1471 1472 1472 1473 1474 1475 1476 1477 1478 1478 1479 1479 1479 1480 1480 1481 1482 1484 1485 1486 1486 1486 1486 1486 1485 1485 1484 1484
1421 1421 1422 1422 1423 1424 1425 1427 1427 1429 1430 1431 1432 1434 1435 1437 1437 1438 1439 1440 1440 1441 1442 1443 1444 1445 1446 1446 1447 1447 1448 1450 1453 1457 1460 1462 1464 1466 1467 1468 1469 1470 1471 1472 1473 1474 1475 1476 1477 1477 1478 1478 1478 1478 1479 1480 1482 1483 1484 1485 1485 1485 1485 1484 1484 1484 1483 1483 1482
1420 1420 1421 1421 1422 1423 1424 1425 1427 1428 1429 1431 1432 1433 1434 1435 1436 1437 1437 1438 1439 1440 1441 1442 1443 1444 1444 1445 1445 1447 1449 1451 1454 1457 1459 1461 1463 1465 1467 1467 1468 1469 1470 1472 1472 1474 1474 1475 1476 1476 1477 1477 1477 1478 1479 1480 1482 1483 1483 1484 1484 1484 1483 1483 1482 1482 1482 1481 1480
1419 1419 1420 1420 1421 1422 1423 1424 1426 1427 1428 1430 1431 1432 1433 1434 1435 1435 1436 1437 1437 1438 1440 1441 1442 1442 1443 1444 1445 1447 1450 1453 1456 1457 1459 1461 1463 1465 1466 1467 1468 1469 1470 1471 1472 1473 1474 1474 1474 1475 1475 1476 1477 1477 1479 1480 1481 1481 1482 1482 1482 1482 1482 1482 1481 1480 1480 1479 1479
1418 1418 1419 1420 1420 1421 1422 1423 1425 1426 1427 1429 1430 1431 1432 1432 1433 1434 1435 1435 1436 1437 1439 1440 1441 1441 1442 1444 1446 1448 1451 1454 1456 1458 1460 1462 1463 1464 1465 1466 1467 1468 1470 1471 1472 1472 1473 1473 1473 1474 1474 1475 1476 1477 1477 1478 1478 1479 1479 1480 1481 1481 1481 1480 1479 1479 1478 1478 1477
1417 1418 1418 1419 1420 1421 1422 1422 1424 1425 1426 1427 1428 1429 1430 1431 1432 1432 1433 1434 1435 1437 1437 1439 1440 1441 1442 1444 1447 1449 1452 1454 1456 1458 1460 1462 1463 1464 1465 1466 1467 1468 1469 1470 1471 1472 1472 1472 1473 1473 1474 1475 1476 1477 1477 1477 1478 1478 1479 1480 1480 1480 1479 1478 1478 1477 1477 1477 1476
1416 1417 1418 1418 1419 1420 1421 1422 1423 1424 1425 1426 1427 1428 1429 1430 1431 1432 1432 1433 1435 1436 1437 1437 1439 1441 1443 1445 1448 1450 1452 1455 1457 1458 1460 1461 1462 1463 1464 1465 1467 1468 1469 1470 1471 1471 1472 1472 1473 1474 1475 1475 1476 1476 1477 1477 1478 1478 1479 1479 1479 1478 1477 1477 1476 1476 1475 1475 1474
1416 1417 1417 1418 1418 1419 1420 1421 1422 1423 1424 1425 1426 1427 1428 1429 1430 1431 1432 1433 1434 1435 1436 1437 1439 1441 1444 1446 1448 1451 1453 1455 1457 1458 1459 1460 1461 1462 1464 1465 1467 1467 1468 1469 1470 1471 1472 1472 1473 1474 1475 1475 1475 1476 1476 1477 1478 1478 1478 1477 1477 1476 1476 1475 1475 1474 1474 1473 1472
1415 1416 1416 1417 1418 1418 1419 1420 1421 1422 1423 1424 1425 1427 1427 1429 1430 1431 1432 1433 1434 1435 1436 1438 1440 1442 1445 1447 1449 1451 1453 1455 1456 1457 1458 1460 1461 1462 1464 1465 1467 1467 1469 1469 1470 1471 1472 1472 1473 1474 1474 1474 1475 1476 1477 1477 1477 1477 1477 1476 1476 1475 1474 1474 1473 1472 1472 1472 1471
1414 1415 1415 1416 1417 1418 1418 1419 1420 1422 1423 1424 1425 1426 1427 1428 1429 1430 1432 1433 1434 1435 1437 1439 1442 1444 1446 1448 1450 1452 1453 1454 1456 1457 1458 1460 1462 1463 1464 1466 1467 1468 1469 1469 1470 1471 1472 1472 1472 1473 1474 1475 1476 1476 1476 1476 1476 1476 1475 1475 1474 1474 1473 1472 1472 1471 1470 1470 1469
1413 1414 1415 1415 1416 1417 1418 1419 1420 1422 1423 1424 1425 1426 1427 1428 1429 1430 1432 1433 1434 1436 1439 1441 1443 1445 1447 1449 1451 1452 1453 1455 1456 1457 1459 1461 1462 1463 1465 1466 1467 1468 1469 1469 1470 1470 1471 1471 1472 1473 1474 1475 1475 1475 1475 1474 1474 1474 1474 1474 1473 1472 1471 1471 1470 1469 1468 1468 1467
1413 1413 1414 1415 1416 1417 1418 1420 1421 1422 1423 1424 1425 1426 1427 1427 1429 1430 1432 1433 1436 1438 1441 1443 1444 1446 1448 1450 1451 1452 1453 1455 1457 1458 1460 1461 1463 1464 1465 1466 1467 1468 1469 1469 1470 1470 1470 1471 1472 1473 1474 1474 1474 1473 1473 1473 1473 1473 1473 1472 1472 1471 1470 1469 1468 1467 1467 1466 1466
1413 1414 1415 1416 1417 1418 1419 1420 1421 1422 1423 1424 1425 1426 1427 1428 1429 1431 1433 1435 1437 1440 1442 1444 1446 1447 1449 1451 1452 1453 1455 1456 1458 1459 1461 1462 1463 1465 1466 1466 1467 1468 1468 1469 1469 1470 1470 1471 1472 1472 1473 1473 1472 1472 1472 1472 1472 1472 1472 1471 1470 1469 1468 1467 1467 1466 1465 1465 1464
1414 1415 1415 1416 1417 1418 1419 1420 1421 1422 1423 1424 1425 1426 1428 1429 1431 1433 1435 1437 1439 1441 1442 1444 1446 1448 1449 1451 1452 1454 1456 1457 1459 1460 1462 1463 1464 1465 1466 1467 1467 1468 1468 1468 1469 1470 1470 1471 1471 1472 1472 1471 1471 1471 1472 1472 1471 1471 1470 1469 1468 1467 1467 1466 1465 1465 1464 1463 1463
1415 1415 1416 1417 1417 1418 1419 1420 1421 1422 1424 1425 1427 1428 1430 1431 1433 1435 1437 1438 1440 1441 1443 1445 1446 1447 1449 1451 1453 1455 1457 1458 1460 1461 1462 1463 1464 1465 1466 1466 1467 1467 1468 1468 1469 1470 1470 1470 1470 1470 1470 1470 1471 1471 1471 1471 1470 1469 1468 1467 1467 1466 1465 1465 1464 1463 1463 1462 1461
1415 1416 1417 1417 1418 1419 1420 1421 1422 1424 1425 1427 1429 1430 1432 1433 1435 1436 1438 1439 1441 1442 1444 1445 1447 1448 1451 1453 1455 1456 1458 1459 1461 1462 1462 1463 1464 1465 1465 1466 1466 1467 1468 1468 1469 1469 1469 1469 1469 1469 1470 1470 1470 1470 1470 1469 1469 1468 1467 1466 1466 1465 1464 1463 1463 1462 1462 1461 1460
1416 1417 1417 1418 1419 1421 1422 1423 1424 1426 1427 1429 1431 1432 1433 1434 1436 1437 1439 1441 1442 1444 1445 1447 1448 1450 1452 1454 1456 1457 1458 1460 1461 1462 1462 1463 1464 1464 1465 1466 1466 1467 1467 1468 1468 1468 1467 1468 1468 1469 1469 1470 1469 1469 1468 1468 1467 1467 1466 1465 1464 1464 1463 1462 1462 1461 1461 1460 1459
1417 1418 1420 1421 1422 1422 1424 1425 1427 1428 1430 1431 1432 1433 1434 1435 1437 1439 1441 1442 1444 1446 1447 1449 1450 1452 1454 1455 1457 1458 1459 1460 1461 1462 1462 1463 1463 1464 1465 1466 1466 1467 1467 1467 1467 1467 1467 1467 1468 1468 1469 1469 1468 1468 1467 1467 1466 1465 1464 1464 1463 1463 1462 1462 1461 1461 1460 1459 1459
1419 1420 1422 1422 1423 1424 1426 1427 1428 1430 1431 1432 1433 1434 1436 1437 1439 1441 1442 1444 1446 1447 1449 1451 1452 1453 1455 1456 1457 1458 1459 1460 1461 1462 1462 1463 1463 1464 1465 1465 1466 1466 1466 1466 1467 1467 1467 1467 1467 1468 1468 1467 1467 1467 1466 1465 1464 1464 1463 1463 1462 1462 1462 1461 1460 1460 1459 1459 1458